SWA2327 KBNA-KPHX

Flight info

Callsign SWA2327
Flight time N/A
Altitude 30000
Route PARDN4 HODJS HAKAT VLUST TUL GULLI ROLLS/N0468F320 NOSEW KA33W LORAT ZUN EAGUL6
Aircraft B38M/M-SDE1FGHILORVWXY/HB1

Departure

Time 2026-05-05 06:31
Airport Nashville International Airport (KBNA)

Arrival

Time N/A
Airport Phoenix Sky Harbor International Airport (KPHX)
Time Latitude Longitude Altitude Speed Heading
2026-05-05 05:54 36.12937 -86.66955 569 ft 0 kts 298°
2026-05-05 06:17 36.12933 -86.66946 569 ft 4 kts 298°
2026-05-05 06:18 36.12920 -86.66917 569 ft 4 kts 298°
2026-05-05 06:18 36.12911 -86.66896 569 ft 0 kts 298°
2026-05-05 06:23 36.12913 -86.66898 569 ft 0 kts 325°
2026-05-05 06:24 36.12918 -86.66894 569 ft 2 kts 37°
2026-05-05 06:24 36.12923 -86.66858 575 ft 7 kts 101°
2026-05-05 06:24 36.12869 -86.66809 574 ft 13 kts 159°
2026-05-05 06:24 36.12777 -86.66767 571 ft 15 kts 194°
2026-05-05 06:25 36.12687 -86.66855 572 ft 14 kts 221°
2026-05-05 06:25 36.12690 -86.66957 572 ft 15 kts 312°
2026-05-05 06:25 36.12765 -86.67062 572 ft 15 kts 311°
2026-05-05 06:25 36.12831 -86.67164 577 ft 15 kts 307°
2026-05-05 06:26 36.12848 -86.67277 578 ft 14 kts 228°
2026-05-05 06:26 36.12776 -86.67364 582 ft 15 kts 223°
2026-05-05 06:26 36.12686 -86.67388 582 ft 15 kts 140°
2026-05-05 06:26 36.12589 -86.67265 583 ft 27 kts 134°
2026-05-05 06:27 36.12463 -86.67103 584 ft 26 kts 133°
2026-05-05 06:27 36.12252 -86.66712 578 ft 24 kts 108°
2026-05-05 06:27 36.12217 -86.66562 575 ft 14 kts 82°
2026-05-05 06:28 36.12301 -86.66497 576 ft 17 kts 19°
2026-05-05 06:28 36.12473 -86.66427 571 ft 33 kts 18°
2026-05-05 06:28 36.12660 -86.66353 571 ft 28 kts 18°
2026-05-05 06:28 36.12841 -86.66280 566 ft 26 kts 18°
2026-05-05 06:29 36.13027 -86.66206 566 ft 25 kts 18°
2026-05-05 06:29 36.13161 -86.66153 556 ft 17 kts 17°
2026-05-05 06:29 36.13268 -86.66111 558 ft 17 kts 18°
2026-05-05 06:29 36.13354 -86.66076 551 ft 13 kts 18°
2026-05-05 06:30 36.13376 -86.66026 550 ft 9 kts 98°
2026-05-05 06:30 36.13363 -86.65971 550 ft 5 kts 109°
2026-05-05 06:30 36.13353 -86.65948 551 ft 0 kts 143°
2026-05-05 06:30 36.13321 -86.65949 556 ft 13 kts 195°
2026-05-05 06:31 36.13026 -86.66069 558 ft 91 kts 198°
2026-05-05 06:31 36.12150 -86.66414 587 ft 168 kts 198°
2026-05-05 06:31 36.11028 -86.66853 1632 ft 162 kts 196°
2026-05-05 06:31 36.09992 -86.67465 2665 ft 177 kts 223°
2026-05-05 06:32 36.09372 -86.68867 3532 ft 198 kts 246°
2026-05-05 06:32 36.08806 -86.70511 4517 ft 217 kts 244°
2026-05-05 06:32 36.08183 -86.72274 5518 ft 237 kts 244°
2026-05-05 06:32 36.07509 -86.74204 6472 ft 250 kts 244°
2026-05-05 06:33 36.06871 -86.76211 6768 ft 253 kts 255°
2026-05-05 06:33 36.06893 -86.78411 6887 ft 261 kts 278°
2026-05-05 06:33 36.07328 -86.80605 6969 ft 263 kts 278°
2026-05-05 06:33 36.07756 -86.82801 6984 ft 263 kts 278°
2026-05-05 06:34 36.08193 -86.85001 7013 ft 264 kts 278°